STSAT-3

Last updated on Thu Nov 21 2024 00:03:26 GMT+0000 (Coordinated Universal Time)

1 39422U 13066G 24325.61401942 .00006634 00000+0 57552-3 0 9994 2 39422 97.5402 299.1014 0019589 188.2280 171.8624 14.97233459598206
UTC large
Height (km)
Speed (km/s)
/
Latitude / Longitude
Inclination (degrees)
Orbital Period (minutes)
Azimuth
Elevation
Range (km)
Doppler Factor

Next 0 passes for location: London (51.5072 / 0.1276)

Sorry there are no passes over London.